Weather History for KAAA - February, 2013

Change the Weather History Date:

Sunday, February 10, 2013

  Actual Average (KSPI) Record (KSPI)
Temperature  
Mean Temperature 44 °F 30 °F  
Max Temperature 51 °F 38 °F 75 °F (1932)
Min Temperature 36 °F 21 °F -13 °F (1982)
Degree Days  
Heating Degree Days 22 35  
Month to date heating degree days 364  
Since 1 July heating degree days 3690  
Cooling Degree Days 0 0  
Month to date cooling degree days 0  
Year to date cooling degree days 0  
Moisture  
Dew Point 41 °F    
Average Humidity 87    
Maximum Humidity 96    
Minimum Humidity 55    
Precipitation  
Precipitation 0.33 in 0.07 in 1.59 in (1881)
Month to date precipitation 0.58  
Year to date precipitation 2.40  
Snow  
Snow 0.00 in 0.30 in 6.60 in (1981)
Month to date snowfall 2.2  
Since 1 July snowfall 14.8  
Snow Depth -    
Sea Level Pressure  
Sea Level Pressure 29.73 in    
Wind  
Wind Speed 14 mph (SSE)    
Max Wind Speed 29 mph    
Max Gust Speed 39 mph    
Visibility 8 miles    
Events Rain , Thunderstorm    
T = Trace of Precipitation, MM = Missing Value Source: NWS Daily Summary

Daily Weather History Graph

Daily Weather History Graph

Search for Another Location

Airport or City:

Trip Planner

Search our weather history database for the weather conditions in past years. The results will help you decide how hot, cold, wet, or windy it might be!

Date:

Astronomy

Feb. 10, 2013 Rise Set
Actual Time 6:56 AM CST 5:27 PM CST
Civil Twilight 6:28 AM CST 5:55 PM CST
Nautical Twilight 5:56 AM CST 6:27 PM CST
Astronomical Twilight 5:24 AM CST 6:59 PM CST
Moon 6:45 AM CST (2/10) 6:18 PM CST (2/10)
Length of Visible Light 11h 27m
Length of Day
10h 31m
New Moon, 0% of the Moon is Illuminated
Feb 10
New Moon
Feb 17
First Quarter
Feb 25
Full
Mar 4
Last Quarter
Mar 11
New

Hourly Weather History & Observations

Time (CST) Temp. Windchill Dew Point Humidity Pressure Visibility Wind Dir Wind Speed Gust Speed Precip Events Conditions
12:15 AM 37.9 °F 32.1 °F 32.0 °F 79% 30.06 in 10.0 mi SSE 8.1 mph - N/A   Drizzle
12:35 AM 37.6 °F 31.0 °F 32.5 °F 82% 30.06 in 10.0 mi SSE 9.2 mph - N/A Rain Light Rain
12:55 AM 36.7 °F 30.5 °F 32.9 °F 86% 30.05 in 10.0 mi SSE 8.1 mph - N/A Rain Light Rain
1:15 AM 36.5 °F 31.0 °F 33.3 °F 88% 30.04 in 7.0 mi SSE 6.9 mph - 0.01 in Rain Light Rain
1:35 AM 37.0 °F 30.4 °F 33.3 °F 86% 30.03 in 10.0 mi SE 9.2 mph - 0.01 in Rain Rain
1:55 AM 37.0 °F 30.4 °F 33.4 °F 87% 30.02 in 7.0 mi SE 9.2 mph - 0.03 in Rain Rain
2:15 AM 37.0 °F 29.3 °F 33.8 °F 88% 30.01 in 7.0 mi SE 11.5 mph - 0.02 in Rain Rain
2:35 AM 37.0 °F 31.0 °F 34.0 °F 89% 30.00 in 7.0 mi SE 8.1 mph - 0.03 in Rain Rain
2:55 AM 37.4 °F 31.4 °F 34.7 °F 90% 29.99 in 10.0 mi SE 8.1 mph - 0.03 in   Overcast
3:15 AM 37.8 °F 31.3 °F 35.2 °F 91% 29.97 in 7.0 mi SE 9.2 mph - N/A   Light Drizzle
3:35 AM 37.4 °F 31.4 °F 35.6 °F 93% 29.97 in 7.0 mi SE 8.1 mph - 0.01 in Rain Light Rain
3:55 AM 37.6 °F 32.3 °F 36.0 °F 94% 29.96 in 7.0 mi SE 6.9 mph - 0.01 in   Overcast
4:15 AM 37.9 °F 30.9 °F 36.5 °F 95% 29.95 in 7.0 mi SE 10.4 mph - N/A   Overcast
4:35 AM 38.3 °F 31.9 °F 36.7 °F 94% 29.94 in 5.0 mi SE 9.2 mph - N/A Rain Rain
4:55 AM 38.3 °F 33.2 °F 36.9 °F 95% 29.93 in 5.0 mi ESE 6.9 mph - 0.01 in Rain Rain
5:15 AM 38.1 °F 32.3 °F 37.0 °F 96% 29.92 in 4.0 mi SE 8.1 mph - 0.01 in Rain Light Rain
5:35 AM 38.1 °F 31.7 °F 36.9 °F 95% 29.90 in 4.0 mi ESE 9.2 mph - 0.01 in Rain Rain
5:55 AM 38.3 °F 31.4 °F 37.2 °F 96% 29.89 in 4.0 mi ESE 10.4 mph - 0.01 in   Overcast
6:15 AM 38.5 °F 30.3 °F 37.4 °F 96% 29.88 in 5.0 mi SE 13.8 mph - N/A   Overcast
6:35 AM 39.2 °F 31.2 °F 37.0 °F 92% 29.87 in 7.0 mi SE 13.8 mph 20.7 mph N/A   Overcast
6:55 AM 39.2 °F 30.5 °F 36.7 °F 91% 29.85 in 7.0 mi SE 16.1 mph 20.7 mph 0.01 in Rain Light Rain
7:15 AM 39.4 °F 31.4 °F 36.5 °F 89% 29.86 in 10.0 mi SE 13.8 mph 18.4 mph N/A Rain Light Rain
7:55 AM 40.3 °F 31.6 °F 37.0 °F 88% 29.83 in 10.0 mi SE 17.3 mph 23.0 mph N/A Rain Light Rain
8:15 AM 40.3 °F 31.9 °F 37.4 °F 89% 29.81 in 10.0 mi SE 16.1 mph - N/A   Overcast
8:35 AM 41.9 °F 33.4 °F 38.3 °F 87% 29.79 in 10.0 mi SE 18.4 mph 25.3 mph N/A Rain Rain
8:55 AM 42.1 °F 33.3 °F 39.2 °F 90% 29.79 in 7.0 mi SSE 19.6 mph 24.2 mph 0.02 in Rain , Thunderstorm Rain
9:15 AM 42.1 °F 33.3 °F 39.7 °F 91% 29.79 in 4.0 mi SSE 19.6 mph 26.5 mph 0.06 in Rain Rain
9:35 AM 43.0 °F 34.2 °F 40.6 °F 91% 29.77 in 7.0 mi SSE 20.7 mph 27.6 mph 0.12 in Rain Rain
9:55 AM 43.2 °F 34.5 °F 40.1 °F 89% 29.76 in 10.0 mi SSE 20.7 mph 27.6 mph 0.13 in Rain Light Rain
10:15 AM 43.7 °F 35.2 °F 41.0 °F 90% 29.75 in 7.0 mi SSE 20.7 mph 29.9 mph N/A Rain Light Rain
10:35 AM 44.4 °F 34.9 °F 42.3 °F 92% 29.72 in 5.0 mi SSE 27.6 mph 35.7 mph 0.03 in Rain Rain
10:55 AM 44.6 °F 34.9 °F 42.4 °F 92% 29.70 in 5.0 mi SSE 28.8 mph 35.7 mph 0.07 in Rain Rain
11:15 AM 45.3 °F 36.1 °F 42.8 °F 91% 29.69 in 10.0 mi SSE 27.6 mph 39.1 mph N/A Rain Light Rain
11:35 AM 45.5 °F 36.5 °F 42.8 °F 90% 29.67 in 10.0 mi South 26.5 mph 34.5 mph 0.01 in Rain Light Rain
11:55 AM 45.9 °F 38.0 °F 43.2 °F 90% 29.65 in 10.0 mi SSE 20.7 mph 33.4 mph 0.01 in   Overcast
12:15 PM 46.9 °F - 44.1 °F 90% 29.64 in 10.0 mi SSE 23.0 mph 34.5 mph N/A   Overcast
12:35 PM 47.8 °F - 45.0 °F 90% 29.62 in 10.0 mi South 23.0 mph 31.1 mph N/A   Overcast
12:55 PM 48.2 °F - 44.8 °F 88% 29.60 in 10.0 mi South 21.9 mph 36.8 mph N/A   Overcast
1:15 PM 48.6 °F - 45.0 °F 87% 29.59 in 10.0 mi South 23.0 mph 32.2 mph N/A   Overcast
1:35 PM 49.1 °F - 45.1 °F 86% 29.59 in 10.0 mi South 21.9 mph 32.2 mph N/A   Overcast
1:55 PM 49.5 °F - 45.3 °F 86% 29.58 in 10.0 mi South 24.2 mph 33.4 mph N/A   Overcast
2:15 PM 49.3 °F - 45.5 °F 87% 29.58 in 10.0 mi South 24.2 mph 35.7 mph N/A   Overcast
2:35 PM 49.1 °F - 45.9 °F 89% 29.57 in 7.0 mi South 24.2 mph 33.4 mph N/A   Overcast
2:55 PM 48.4 °F - 46.4 °F 93% 29.57 in 2.5 mi South 24.2 mph 28.8 mph N/A Rain Light Rain
3:15 PM 48.4 °F - 46.6 °F 93% 29.56 in 3.0 mi South 18.4 mph 26.5 mph N/A Rain Light Rain
3:35 PM 48.4 °F - 46.8 °F 94% 29.57 in 4.0 mi South 19.6 mph 25.3 mph N/A   Overcast
3:55 PM 48.9 °F - 47.3 °F 94% 29.56 in 7.0 mi South 19.6 mph 27.6 mph N/A   Overcast
4:15 PM 49.6 °F - 47.7 °F 93% 29.56 in 10.0 mi South 19.6 mph - N/A   Overcast
4:35 PM 50.2 °F - 48.0 °F 92% 29.56 in 10.0 mi South 21.9 mph 27.6 mph N/A   Overcast
4:55 PM 50.4 °F - 48.0 °F 92% 29.56 in 10.0 mi South 23.0 mph 28.8 mph N/A   Overcast
5:15 PM 50.5 °F - 48.2 °F 92% 29.56 in 10.0 mi South 21.9 mph 28.8 mph N/A   Overcast
5:35 PM 50.9 °F - 48.4 °F 91% 29.55 in 10.0 mi South 19.6 mph 27.6 mph N/A   Overcast
5:55 PM 51.1 °F - 48.4 °F 90% 29.55 in 10.0 mi South 21.9 mph 31.1 mph N/A   Overcast
6:15 PM 51.3 °F - 48.6 °F 90% 29.56 in 10.0 mi South 18.4 mph 27.6 mph N/A   Overcast
6:35 PM 51.3 °F - 48.6 °F 90% 29.56 in 10.0 mi South 17.3 mph 25.3 mph N/A   Mostly Cloudy
6:55 PM 51.1 °F - 48.6 °F 91% 29.56 in 10.0 mi South 15.0 mph 24.2 mph N/A   Clear
7:15 PM 50.9 °F - 48.4 °F 91% 29.56 in 10.0 mi South 12.7 mph 21.9 mph N/A   Clear
7:35 PM 51.1 °F - 48.4 °F 90% 29.56 in 10.0 mi South 13.8 mph 24.2 mph N/A   Clear
7:55 PM 51.3 °F - 48.4 °F 90% 29.57 in 10.0 mi South 18.4 mph 23.0 mph N/A   Clear
8:15 PM 51.3 °F - 48.7 °F 91% 29.57 in 10.0 mi SSW 13.8 mph 25.3 mph N/A   Clear
8:35 PM 51.1 °F - 48.6 °F 91% 29.59 in 10.0 mi SSW 11.5 mph 19.6 mph N/A   Clear
8:55 PM 50.5 °F - 47.7 °F 90% 29.59 in 10.0 mi SW 9.2 mph 17.3 mph N/A   Clear
9:15 PM 50.4 °F - 46.0 °F 85% 29.60 in 10.0 mi SW 9.2 mph 18.4 mph N/A   Clear
9:35 PM 50.4 °F - 38.3 °F 63% 29.61 in 10.0 mi WSW 11.5 mph 20.7 mph N/A   Clear
9:55 PM 49.6 °F - 36.3 °F 60% 29.61 in 10.0 mi SW 10.4 mph 24.2 mph N/A   Clear
10:15 PM 48.4 °F - 35.4 °F 61% 29.62 in 10.0 mi SW 8.1 mph 20.7 mph N/A   Clear
10:35 PM 46.8 °F - 35.6 °F 65% 29.62 in 10.0 mi SW 8.1 mph 16.1 mph N/A   Clear
10:55 PM 46.2 °F 42.7 °F 35.1 °F 65% 29.62 in 10.0 mi SW 6.9 mph - N/A   Clear
11:15 PM 46.6 °F - 34.3 °F 62% 29.63 in 10.0 mi WSW 10.4 mph 19.6 mph N/A   Scattered Clouds
11:35 PM 47.3 °F - 34.0 °F 60% 29.64 in 10.0 mi WSW 10.4 mph 19.6 mph N/A   Mostly Cloudy
11:55 PM 46.4 °F 40.1 °F 31.1 °F 55% 29.66 in 10.0 mi WSW 15.0 mph 29.9 mph N/A   Overcast